SCP
2 1 1 0 1 0 0 1 0 1 1 1 1 1 0 0 0 0 0 0 0 0 0 0 0 0 0 0 0 0 0 0 0 0 0 0 0 0 0 -0 -0 0 0
3 1 1 1 0 0 0 1 0 1 1 1 1 1 1 0 0 0 0 1 0 0 0 0 0 0 0 0 0 0 0 0 0 0 0 0 0 0 0 -0 -0 -0 -0
2 2 1 1 0 0 1 1 1 1 1 1 1 1 1 0 0 1 0 0 1 0 0 0 0 0 0 0 0 0 0 0 0 0 0 0 0 0 0 -0 -0 -0 -0
1 1 1 1 0 1 0 1 0 0 0 2 2 1 1 0 1 1 1 0 0 0 0 0 0 0 0 0 0 0 0 0 0 0 0 0 0 0 0 0 -0 -0 -0
1 1 0 0 1 1 0 0 0 0 0 2 1 1 1 1 1 0 0 0 0 0 0 0 0 0 0 0 0 0 0 0 0 0 0 0 0 0 0 0 0 0 0
1 1 1 1 1 1 0 0 0 0 1 1 1 1 1 1 1 0 0 0 0 0 0 0 0 0 0 0 0 0 0 0 0 0 0 0 0 0 0 0 0 -0 -0
1 1 1 1 1 1 1 0 1 1 1 1 1 1 0 0 0 0 0 0 0 0 0 0 0 0 0 0 0 0 0 0 0 0 0 0 0 0 0 0 -0 -0 -0
1 1 1 1 1 1 1 1 1 1 1 1 1 0 0 1 0 0 0 0 0 0 0 0 0 0 0 0 0 0 0 0 0 0 0 0 0 0 0 0 -0 -0 -0
1 1 1 1 1 1 1 1 1 1 1 1 0 0 0 0 0 0 0 0 0 0 0 0 0 0 0 0 0 0 0 0 0 0 0 0 0 0 0 -0 -0 -0 -0
1 1 2 1 1 0 1 1 1 1 1 0 0 0 0 0 0 0 0 0 0 0 0 0 0 0 0 0 0 0 0 0 0 0 0 0 0 0 -0 -0 -0 -0 -0
1 1 1 1 1 1 1 1 1 1 0 0 0 0 0 0 0 0 0 0 0 0 0 0 0 0 0 0 0 0 0 0 0 0 0 0 0 -0 -0 -0 -0 -0 -0
2 1 1 1 1 1 1 1 1 0 0 0 0 0 0 0 0 0 0 0 0 0 0 0 0 0 1 0 0 0 0 0 0 0 0 0 0 -0 -0 0 -0 -0 0
1 1 1 1 1 1 1 0 0 0 0 0 0 0 0 0 0 0 0 0 0 0 0 0 0 0 0 0 0 0 0 0 0 0 0 0 0 0 0 0 0 0 -0
1 1 1 1 1 0 0 0 0 0 0 0 0 0 0 -0 0 0 0 0 0 0 0 0 0 0 0 0 0 0 0 0 0 0 0 0 0 0 0 0 0 0 0
1 1 1 1 0 0 0 0 0 0 0 0 0 0 0 -0 0 -0 0 0 0 0 0 0 0 0 0 0 0 0 0 0 0 0 0 0 -0 0 0 0 0 0 -0
1 1 1 0 0 0 0 0 0 0 0 0 0 0 0 0 0 -0 0 0 0 0 0 0 0 0 0 0 0 0 0 0 0 0 0 -0 0 0 -0 0 0 0 0
1 0 0 0 0 0 0 0 0 0 0 0 0 0 0 -0 0 0 0 0 0 0 0 0 0 0 0 0 0 0 0 0 0 0 0 0 0 -0 0 -0 0 -0 0
0 0 0 0 0 0 0 0 0 0 0 0 0 0 0 0 0 0 0 0 0 0 0 0 0 0 0 0 0 0 0 0 0 0 0 0 0 0 0 0 0 -0 -0
0 0 0 0 0 0 0 0 0 0 0 0 0 0 0 0 0 0 0 -0 0 0 0 0 0 0 0 0 0 0 0 0 0 0 0 0 0 0 0 0 0 0 -0
0 0 0 0 0 0 0 0 0 0 0 0 0 0 0 0 0 0 0 0 0 0 0 0 0 0 0 0 0 0 0 0 0 0 0 0 0 0 0 0 -0 -0 0
0 0 0 0 0 0 0 0 0 0 0 0 0 0 -0 0 0 0 0 0 0 0 0 0 0 0 0 0 0 0 0 0 0 0 0 0 0 0 0 0 0 0 -0
0 0 0 0 0 0 0 0 -0 0 0 0 0 -0 0 0 -0 -0 0 0 0 0 0 0 0 0 0 0 0 0 0 0 0 0 0 0 0 0 0 -0 0 0 -0
0 0 0 0 0 0 0 -0 -0 0 0 -0 0 0 0 0 -0 0 0 0 0 0 0 0 0 0 0 0 0 0 0 0 0 0 0 0 0 0 0 0 0 0 -0
0 0 0 0 0 0 0 -0 -0 -0 -0 -0 -0 -0 0 0 0 -0 0 0 0 0 0 0 0 0 0 0 0 0 0 0 0 0 0 0 0 -0 0 0 0 0 0
0 0 0 0 0 0 0 0 0 -0 -0 -0 -0 -0 -0 0 -0 -0 0 0 0 0 0 0 0 0 0 0 0 0 0 0 0 0 0 0 -0 0 0 0 0 0 0
0 0 0 -0 0 0 0 0 0 -0 0 -0 -0 -0 -0 -0 -0 -0 0 0 0 0 0 0 0 0 0 0 0 0 0 0 0 0 0 0 0 0 0 0 0 -0 0
Wind_Speed_500mb
64 57 52 49 45 42 40 39 36 31 31 29 27 28 27 23 21 20 18 29 21 18 20 26 33 31 32 30 31 31 28 24 30 34 47 40 35 38 24 30 30 28 35
64 57 54 50 48 46 42 41 36 34 33 31 33 30 31 26 25 26 21 25 27 24 21 20 23 33 32 32 30 31 30 24 32 34 38 39 39 38 30 31 28 25 34
60 61 50 49 47 48 49 40 38 34 33 35 35 36 31 30 30 30 26 24 26 27 30 26 22 23 31 34 31 34 32 28 31 35 37 39 36 33 29 28 26 26 32
54 56 48 46 45 46 43 43 38 36 35 41 37 32 34 28 31 35 30 27 26 24 24 28 25 26 28 33 34 34 30 25 29 35 36 36 35 33 26 28 25 23 25
46 47 39 39 43 42 42 41 38 35 35 38 33 35 34 33 34 34 32 30 32 29 26 31 29 29 30 34 36 37 30 25 26 37 37 34 33 31 22 22 21 20 23
38 36 34 36 42 37 39 36 36 33 36 29 30 29 31 39 40 33 32 33 35 28 28 28 19 26 30 36 36 36 35 28 27 38 38 37 32 29 23 25 20 22 20
32 32 32 39 34 33 34 35 35 35 27 23 24 29 31 34 35 34 32 28 27 28 26 30 26 24 22 30 36 36 36 31 28 39 39 33 35 32 26 26 20 16 39
33 35 33 30 30 28 33 36 33 25 21 25 19 23 27 27 27 33 32 27 27 29 26 24 26 26 26 19 22 26 32 32 31 40 37 37 35 30 28 26 21 19 47
33 31 35 34 29 28 29 36 31 26 25 21 27 22 11 14 11 11 24 24 27 31 27 20 31 31 31 17 18 19 24 29 29 37 36 40 37 31 34 27 25 30 41
33 36 37 35 29 26 30 30 27 26 23 23 29 28 27 19 11 9 10 22 22 30 27 22 25 29 27 20 20 20 20 28 32 34 38 43 39 35 40 35 33 27 28
37 38 38 34 30 27 26 28 26 27 24 22 19 17 22 18 16 10 12 17 17 19 22 23 26 33 33 21 24 22 18 28 31 33 39 44 42 34 35 38 37 37 35
39 40 35 32 30 28 27 28 25 25 23 21 23 20 18 22 21 17 9 16 19 18 20 23 23 29 29 24 21 19 23 28 35 33 39 45 42 42 41 43 40 37 39
34 39 36 35 29 29 25 22 22 19 21 21 22 21 21 22 17 17 13 17 18 21 16 18 26 25 21 24 25 22 23 29 36 35 36 45 41 36 38 44 41 38 38
31 38 35 28 26 24 21 20 16 18 21 21 22 24 23 22 20 16 17 16 22 21 19 20 22 22 24 25 24 27 25 28 35 35 37 51 37 46 41 43 40 40 38
31 33 29 26 23 21 19 19 18 21 22 22 22 24 23 23 21 19 17 19 24 26 22 21 17 22 20 24 24 29 22 32 35 38 43 45 51 51 49 46 48 41 30
30 28 25 23 20 20 20 19 19 20 21 21 19 21 20 21 22 23 20 15 27 29 19 24 20 24 22 25 26 27 27 36 37 39 40 41 53 50 49 51 46 39 35
25 22 21 21 21 21 20 20 21 21 23 23 21 17 18 19 18 20 27 21 17 25 28 22 20 24 24 26 30 33 32 37 39 36 36 65 60 50 44 50 49 45 40
21 22 22 22 21 20 19 20 21 22 23 24 25 22 19 14 19 22 25 27 20 25 30 31 26 26 25 27 32 35 38 39 39 41 50 59 47 50 58 61 52 44 38
25 23 22 20 19 18 20 20 19 18 18 19 18 25 29 18 18 22 25 25 27 27 26 33 36 32 36 36 36 42 46 51 45 45 67 45 45 51 53 51 47 41 36
25 23 21 20 17 15 14 13 14 17 16 17 17 21 29 27 19 28 24 19 28 37 30 35 40 41 42 41 40 53 57 60 76 72 66 62 59 54 51 50 50 39 35
26 24 22 19 15 11 13 14 12 13 15 13 14 22 23 27 26 29 29 32 35 34 40 47 49 49 53 46 51 62 62 68 73 74 62 54 56 55 50 46 44 38 26
28 24 21 14 8 8 11 15 15 12 10 11 12 24 23 24 28 29 32 31 39 37 47 54 57 55 54 54 57 57 62 75 66 61 68 63 54 56 54 43 44 29 29
27 22 17 9 6 7 10 12 10 8 10 7 9 20 17 23 33 37 38 40 35 24 34 54 58 60 62 49 56 81 86 85 82 77 65 60 52 49 44 42 32 32 27
22 21 12 8 7 6 10 11 8 5 7 12 10 18 15 20 34 42 42 40 36 27 40 45 50 50 55 51 71 72 81 68 67 72 61 60 49 44 43 35 33 30 27
23 17 11 10 9 10 12 12 10 8 10 11 12 19 23 17 27 42 45 43 39 42 36 39 45 40 46 59 61 70 71 69 76 67 49 55 40 32 30 31 32 30 25
23 17 15 13 12 12 13 12 11 10 12 13 15 23 24 27 24 42 46 48 48 45 45 39 39 35 44 54 54 54 60 70 74 56 38 30 34 32 21 28 34 30 28
Wind_Direction_500mb
229 230 226 221 226 225 229 227 229 232 237 240 244 249 253 255 260 258 256 273 262 259 261 252 236 230 230 229 225 225 233 234 216 209 202 212 204 196 207 215 227 228 209
231 229 228 225 225 226 229 228 230 234 240 243 248 243 246 251 260 253 253 266 270 256 260 259 241 229 228 228 228 226 227 229 215 212 216 220 217 210 224 221 214 216 215
231 231 226 226 228 227 225 224 226 233 237 247 243 242 238 247 251 256 247 248 262 270 259 248 241 235 228 225 224 220 222 230 217 214 205 206 202 208 215 211 210 224 227
231 232 223 228 227 227 227 227 231 235 245 247 252 247 243 239 252 248 243 242 239 249 263 246 235 238 232 225 222 222 225 230 224 211 202 203 206 206 222 202 214 226 225
228 217 222 223 226 220 222 224 226 234 244 252 250 252 244 236 245 251 248 246 244 238 233 244 244 238 231 222 218 220 222 226 226 212 203 203 210 209 210 206 207 208 218
219 219 214 214 225 215 216 220 226 233 240 245 250 255 250 251 257 254 251 246 245 236 229 229 232 235 228 214 211 222 229 225 225 210 205 199 204 201 203 202 198 200 217
215 216 205 220 214 213 222 226 224 230 232 240 252 263 265 266 255 247 242 228 224 222 220 223 215 213 215 206 213 220 227 224 223 207 202 197 194 195 200 196 200 204 196
211 211 194 196 179 190 203 211 203 212 228 238 245 264 266 255 254 239 226 219 226 200 205 223 211 210 186 193 213 220 224 214 209 203 197 192 188 193 194 192 190 183 176
206 197 184 176 174 182 202 198 204 211 222 233 245 234 253 256 219 234 227 220 217 206 203 212 211 199 185 179 194 208 201 199 196 197 191 190 189 191 193 192 189 188 201
186 178 175 172 178 179 195 201 207 224 234 241 251 236 235 256 264 215 231 210 203 206 209 223 212 202 183 174 180 197 197 193 188 191 192 190 186 193 194 197 188 200 176
176 175 174 176 181 184 195 199 215 236 245 240 245 227 224 236 237 244 200 188 183 190 201 217 210 208 200 184 202 196 194 194 186 187 192 191 190 187 200 185 179 177 160
173 175 174 179 186 189 203 214 232 246 241 224 224 220 223 223 225 230 227 179 181 182 194 189 193 196 199 205 201 197 192 190 186 189 193 195 189 192 161 161 174 167 162
169 177 177 189 192 200 212 220 235 222 227 215 216 220 221 230 229 221 209 174 179 183 181 182 188 181 188 196 195 198 188 188 186 186 190 189 180 164 162 166 170 164 162
172 182 186 189 195 204 215 230 221 207 212 216 219 220 216 222 221 211 208 180 155 176 176 168 181 192 197 188 192 196 192 184 185 185 187 185 190 175 175 166 165 168 173
169 174 183 188 196 207 214 209 202 208 213 214 222 220 220 212 218 203 206 200 180 163 178 181 172 188 191 200 201 194 188 187 183 183 185 191 174 176 175 165 171 174 170
163 171 180 193 197 202 196 198 209 209 208 206 209 219 223 219 204 193 193 189 184 176 159 172 171 185 188 198 182 180 180 177 179 184 188 195 181 164 166 171 173 167 163
172 177 185 188 187 188 192 194 199 210 209 211 219 223 229 223 211 193 189 184 189 182 187 154 163 180 185 171 179 177 173 174 174 183 184 182 158 174 176 171 171 168 168
166 169 171 174 180 182 196 203 212 217 216 223 233 221 221 220 209 197 195 191 193 170 173 166 165 163 164 170 165 167 170 166 164 174 171 170 168 168 172 176 172 166 162
154 159 166 171 178 190 205 213 221 224 215 222 229 225 220 218 205 189 192 198 186 176 180 169 163 160 158 167 163 157 158 163 168 178 173 176 173 175 172 170 169 159 163
153 159 164 168 178 190 212 219 219 212 212 213 247 242 213 215 209 191 186 190 185 169 165 170 163 159 156 163 166 160 156 170 167 167 170 168 168 169 167 167 160 160 163
156 159 165 171 181 186 210 208 213 221 212 227 236 215 203 206 207 192 189 171 167 159 162 166 161 162 162 164 166 161 158 160 160 164 161 162 165 159 160 164 154 168 187
160 162 164 170 172 197 217 208 196 209 232 250 265 205 207 210 204 189 174 178 173 176 171 173 166 165 163 172 169 167 161 150 147 160 162 156 156 155 161 159 169 183 183
168 166 159 160 170 211 214 192 190 201 226 214 189 196 213 209 193 188 181 180 180 160 178 176 174 176 168 165 156 155 158 164 162 164 165 154 160 168 169 169 181 185 189
169 161 156 148 158 181 160 162 172 199 158 158 171 188 200 185 187 185 172 170 175 163 180 186 183 180 174 170 168 168 165 165 162 163 167 155 167 175 176 192 191 193 203
162 156 146 142 169 160 151 153 142 153 153 163 171 175 171 159 172 176 167 174 167 167 174 181 183 183 182 180 178 175 175 167 160 163 165 170 165 179 190 199 201 207 213
162 152 136 163 147 150 150 152 147 149 171 182 167 172 182 175 160 165 170 173 167 164 172 177 182 180 173 181 181 182 166 162 161 160 164 171 175 173 188 207 214 216 219
Wind_Speed_850mb
64 57 52 49 45 42 40 39 36 31 31 29 27 28 27 23 21 20 18 29 21 18 20 26 33 31 32 30 31 31 28 24 30 34 47 40 35 38 24 30 30 28 35
64 57 54 50 48 46 42 41 36 34 33 31 33 30 31 26 25 26 21 25 27 24 21 20 23 33 32 32 30 31 30 24 32 34 38 39 39 38 30 31 28 25 34
60 61 50 49 47 48 49 40 38 34 33 35 35 36 31 30 30 30 26 24 26 27 30 26 22 23 31 34 31 34 32 28 31 35 37 39 36 33 29 28 26 26 32
54 56 48 46 45 46 43 43 38 36 35 41 37 32 34 28 31 35 30 27 26 24 24 28 25 26 28 33 34 34 30 25 29 35 36 36 35 33 26 28 25 23 25
46 47 39 39 43 42 42 41 38 35 35 38 33 35 34 33 34 34 32 30 32 29 26 31 29 29 30 34 36 37 30 25 26 37 37 34 33 31 22 22 21 20 23
38 36 34 36 42 37 39 36 36 33 36 29 30 29 31 39 40 33 32 33 35 28 28 28 19 26 30 36 36 36 35 28 27 38 38 37 32 29 23 25 20 22 20
32 32 32 39 34 33 34 35 35 35 27 23 24 29 31 34 35 34 32 28 27 28 26 30 26 24 22 30 36 36 36 31 28 39 39 33 35 32 26 26 20 16 39
33 35 33 30 30 28 33 36 33 25 21 25 19 23 27 27 27 33 32 27 27 29 26 24 26 26 26 19 22 26 32 32 31 40 37 37 35 30 28 26 21 19 47
33 31 35 34 29 28 29 36 31 26 25 21 27 22 11 14 11 11 24 24 27 31 27 20 31 31 31 17 18 19 24 29 29 37 36 40 37 31 34 27 25 30 41
33 36 37 35 29 26 30 30 27 26 23 23 29 28 27 19 11 9 10 22 22 30 27 22 25 29 27 20 20 20 20 28 32 34 38 43 39 35 40 35 33 27 28
37 38 38 34 30 27 26 28 26 27 24 22 19 17 22 18 16 10 12 17 17 19 22 23 26 33 33 21 24 22 18 28 31 33 39 44 42 34 35 38 37 37 35
39 40 35 32 30 28 27 28 25 25 23 21 23 20 18 22 21 17 9 16 19 18 20 23 23 29 29 24 21 19 23 28 35 33 39 45 42 42 41 43 40 37 39
34 39 36 35 29 29 25 22 22 19 21 21 22 21 21 22 17 17 13 17 18 21 16 18 26 25 21 24 25 22 23 29 36 35 36 45 41 36 38 44 41 38 38
31 38 35 28 26 24 21 20 16 18 21 21 22 24 23 22 20 16 17 16 22 21 19 20 22 22 24 25 24 27 25 28 35 35 37 51 37 46 41 43 40 40 38
31 33 29 26 23 21 19 19 18 21 22 22 22 24 23 23 21 19 17 19 24 26 22 21 17 22 20 24 24 29 22 32 35 38 43 45 51 51 49 46 48 41 30
30 28 25 23 20 20 20 19 19 20 21 21 19 21 20 21 22 23 20 15 27 29 19 24 20 24 22 25 26 27 27 36 37 39 40 41 53 50 49 51 46 39 35
25 22 21 21 21 21 20 20 21 21 23 23 21 17 18 19 18 20 27 21 17 25 28 22 20 24 24 26 30 33 32 37 39 36 36 65 60 50 44 50 49 45 40
21 22 22 22 21 20 19 20 21 22 23 24 25 22 19 14 19 22 25 27 20 25 30 31 26 26 25 27 32 35 38 39 39 41 50 59 47 50 58 61 52 44 38
25 23 22 20 19 18 20 20 19 18 18 19 18 25 29 18 18 22 25 25 27 27 26 33 36 32 36 36 36 42 46 51 45 45 67 45 45 51 53 51 47 41 36
25 23 21 20 17 15 14 13 14 17 16 17 17 21 29 27 19 28 24 19 28 37 30 35 40 41 42 41 40 53 57 60 76 72 66 62 59 54 51 50 50 39 35
26 24 22 19 15 11 13 14 12 13 15 13 14 22 23 27 26 29 29 32 35 34 40 47 49 49 53 46 51 62 62 68 73 74 62 54 56 55 50 46 44 38 26
28 24 21 14 8 8 11 15 15 12 10 11 12 24 23 24 28 29 32 31 39 37 47 54 57 55 54 54 57 57 62 75 66 61 68 63 54 56 54 43 44 29 29
27 22 17 9 6 7 10 12 10 8 10 7 9 20 17 23 33 37 38 40 35 24 34 54 58 60 62 49 56 81 86 85 82 77 65 60 52 49 44 42 32 32 27
22 21 12 8 7 6 10 11 8 5 7 12 10 18 15 20 34 42 42 40 36 27 40 45 50 50 55 51 71 72 81 68 67 72 61 60 49 44 43 35 33 30 27
23 17 11 10 9 10 12 12 10 8 10 11 12 19 23 17 27 42 45 43 39 42 36 39 45 40 46 59 61 70 71 69 76 67 49 55 40 32 30 31 32 30 25
23 17 15 13 12 12 13 12 11 10 12 13 15 23 24 27 24 42 46 48 48 45 45 39 39 35 44 54 54 54 60 70 74 56 38 30 34 32 21 28 34 30 28
Wind_Direction_850mb
229 230 226 221 226 225 229 227 229 232 237 240 244 249 253 255 260 258 256 273 262 259 261 252 236 230 230 229 225 225 233 234 216 209 202 212 204 196 207 215 227 228 209
231 229 228 225 225 226 229 228 230 234 240 243 248 243 246 251 260 253 253 266 270 256 260 259 241 229 228 228 228 226 227 229 215 212 216 220 217 210 224 221 214 216 215
231 231 226 226 228 227 225 224 226 233 237 247 243 242 238 247 251 256 247 248 262 270 259 248 241 235 228 225 224 220 222 230 217 214 205 206 202 208 215 211 210 224 227
231 232 223 228 227 227 227 227 231 235 245 247 252 247 243 239 252 248 243 242 239 249 263 246 235 238 232 225 222 222 225 230 224 211 202 203 206 206 222 202 214 226 225
228 217 222 223 226 220 222 224 226 234 244 252 250 252 244 236 245 251 248 246 244 238 233 244 244 238 231 222 218 220 222 226 226 212 203 203 210 209 210 206 207 208 218
219 219 214 214 225 215 216 220 226 233 240 245 250 255 250 251 257 254 251 246 245 236 229 229 232 235 228 214 211 222 229 225 225 210 205 199 204 201 203 202 198 200 217
215 216 205 220 214 213 222 226 224 230 232 240 252 263 265 266 255 247 242 228 224 222 220 223 215 213 215 206 213 220 227 224 223 207 202 197 194 195 200 196 200 204 196
211 211 194 196 179 190 203 211 203 212 228 238 245 264 266 255 254 239 226 219 226 200 205 223 211 210 186 193 213 220 224 214 209 203 197 192 188 193 194 192 190 183 176
206 197 184 176 174 182 202 198 204 211 222 233 245 234 253 256 219 234 227 220 217 206 203 212 211 199 185 179 194 208 201 199 196 197 191 190 189 191 193 192 189 188 201
186 178 175 172 178 179 195 201 207 224 234 241 251 236 235 256 264 215 231 210 203 206 209 223 212 202 183 174 180 197 197 193 188 191 192 190 186 193 194 197 188 200 176
176 175 174 176 181 184 195 199 215 236 245 240 245 227 224 236 237 244 200 188 183 190 201 217 210 208 200 184 202 196 194 194 186 187 192 191 190 187 200 185 179 177 160
173 175 174 179 186 189 203 214 232 246 241 224 224 220 223 223 225 230 227 179 181 182 194 189 193 196 199 205 201 197 192 190 186 189 193 195 189 192 161 161 174 167 162
169 177 177 189 192 200 212 220 235 222 227 215 216 220 221 230 229 221 209 174 179 183 181 182 188 181 188 196 195 198 188 188 186 186 190 189 180 164 162 166 170 164 162
172 182 186 189 195 204 215 230 221 207 212 216 219 220 216 222 221 211 208 180 155 176 176 168 181 192 197 188 192 196 192 184 185 185 187 185 190 175 175 166 165 168 173
169 174 183 188 196 207 214 209 202 208 213 214 222 220 220 212 218 203 206 200 180 163 178 181 172 188 191 200 201 194 188 187 183 183 185 191 174 176 175 165 171 174 170
163 171 180 193 197 202 196 198 209 209 208 206 209 219 223 219 204 193 193 189 184 176 159 172 171 185 188 198 182 180 180 177 179 184 188 195 181 164 166 171 173 167 163
172 177 185 188 187 188 192 194 199 210 209 211 219 223 229 223 211 193 189 184 189 182 187 154 163 180 185 171 179 177 173 174 174 183 184 182 158 174 176 171 171 168 168
166 169 171 174 180 182 196 203 212 217 216 223 233 221 221 220 209 197 195 191 193 170 173 166 165 163 164 170 165 167 170 166 164 174 171 170 168 168 172 176 172 166 162
154 159 166 171 178 190 205 213 221 224 215 222 229 225 220 218 205 189 192 198 186 176 180 169 163 160 158 167 163 157 158 163 168 178 173 176 173 175 172 170 169 159 163
153 159 164 168 178 190 212 219 219 212 212 213 247 242 213 215 209 191 186 190 185 169 165 170 163 159 156 163 166 160 156 170 167 167 170 168 168 169 167 167 160 160 163
156 159 165 171 181 186 210 208 213 221 212 227 236 215 203 206 207 192 189 171 167 159 162 166 161 162 162 164 166 161 158 160 160 164 161 162 165 159 160 164 154 168 187
160 162 164 170 172 197 217 208 196 209 232 250 265 205 207 210 204 189 174 178 173 176 171 173 166 165 163 172 169 167 161 150 147 160 162 156 156 155 161 159 169 183 183
168 166 159 160 170 211 214 192 190 201 226 214 189 196 213 209 193 188 181 180 180 160 178 176 174 176 168 165 156 155 158 164 162 164 165 154 160 168 169 169 181 185 189
169 161 156 148 158 181 160 162 172 199 158 158 171 188 200 185 187 185 172 170 175 163 180 186 183 180 174 170 168 168 165 165 162 163 167 155 167 175 176 192 191 193 203
162 156 146 142 169 160 151 153 142 153 153 163 171 175 171 159 172 176 167 174 167 167 174 181 183 183 182 180 178 175 175 167 160 163 165 170 165 179 190 199 201 207 213
162 152 136 163 147 150 150 152 147 149 171 182 167 172 182 175 160 165 170 173 167 164 172 177 182 180 173 181 181 182 166 162 161 160 164 171 175 173 188 207 214 216 219